Regional Weather Roundup
Issued by NWS

Home | Current Version | Previous Version | Text Only | Print | Product List | Glossary On
Versions: 1 2 3 4 5 6 7 8 9 10 11 12 13 14 15 16 17 18 19 20 21 22 23 24 25 26 27 28 29 30 31 32 33 34 35 36 37 38 39 40 41 42 43 44 45 46 47 48 49 50
000
ASUS43 KLMK 221302
RWRKY
KENTUCKY REGIONAL WEATHER ROUNDUP
NATIONAL WEATHER SERVICE LOUISVILLE KY
900 AM EDT WED OCT 22 2014

NOTE "FAIR" INDICATES FEW OR NO CLOUDS BELOW 12,000 FEET
WITH NO SIGNIFICANT WEATHER AND/OR OBSTRUCTIONS TO VISIBILITY.

KYZ001>023-026-027-061>063-070>075-221400-
WESTERN AND SOUTH CENTRAL KENTUCKY

CITY           SKY/WX    TMP DP  RH WIND       PRES   REMARKS
PADUCAH        CLEAR     42  41  96 CALM      30.27R
HENDERSON      CLEAR    N/A N/A N/A N5        30.30R
OWENSBORO      CLEAR     46  42  86 CALM      30.29R
HOPKINSVILLE   NOT AVBL
BOWLING GREEN  SUNNY     44  40  85 NE5       30.27R
GLASGOW        FAIR      44  40  86 CALM      30.25R
$$

KYZ024-025-028>034-038-045-046-053-221400-
NORTH CENTRAL KENTUCKY

CITY           SKY/WX    TMP DP  RH WIND       PRES   REMARKS
LOUISVILLE/SDF MOSUNNY   47  39  74 N8        30.28R
LOUISVILLE/LOU SUNNY     45  39  79 N6        30.28R
FORT KNOX      SUNNY     41  39  93 N6        30.26R
$$

KYZ035>037-039>044-047>052-055>060-089>105-221400-
NORTHEAST KENTUCKY

CITY           SKY/WX    TMP DP  RH WIND       PRES   REMARKS
LEXINGTON      CLOUDY    47  40  76 N7        30.25R
COVINGTON      PTSUNNY   44  37  76 N7        30.27R
FRANKFORT      CLOUDY    46  38  73 N5        30.25R
$$

KYZ054-064>069-076>088-106>120-221400-
SOUTHEAST KENTUCKY

CITY           SKY/WX    TMP DP  RH WIND       PRES   REMARKS
JACKSON        CLOUDY    43  39  86 CALM      30.22R
LONDON         PTSUNNY   44  39  82 N5        30.23R
SOMERSET       SUNNY     41  41 100 CALM      30.26R
MIDDLESBORO    CLOUDY    45  38  77 N5        30.23R
MONTICELLO     MOSUNNY   41  40  96 CALM      30.26R
$$




USA.gov is the U.S. government's official web portal to all federal, state and local government web resources and services.